Weather History for KMHV - January, 2014

Change the Weather History Date:

Tuesday, January 7, 2014

  Actual Average Record
Temperature  
Mean Temperature 48 °F -  
Max Temperature 60 °F 52 °F 73 °F (1969)
Min Temperature 35 °F 30 °F 15 °F (1973)
Degree Days  
Heating Degree Days 18    
Moisture  
Dew Point 9 °F    
Average Humidity 21    
Maximum Humidity 28    
Minimum Humidity 13    
Precipitation  
Precipitation 0.00 in - - ()
Sea Level Pressure  
Sea Level Pressure 30.14 in    
Wind  
Wind Speed 5 mph (WSW)    
Max Wind Speed 25 mph    
Max Gust Speed 31 mph    
Visibility 10 miles    
Events      
Averages and records for this station are not official NWS values.
T = Trace of Precipitation, MM = Missing Value Source: NWS Daily Summary

Daily Weather History Graph

Daily Weather History Graph

Search for Another Location

Airport or City:

Trip Planner

Search our weather history database for the weather conditions in past years. The results will help you decide how hot, cold, wet, or windy it might be!

Date:

Astronomy

Jan. 07, 2014 Rise Set
Actual Time 7:01 AM PST 4:56 PM PST
Civil Twilight 6:33 AM PST 5:24 PM PST
Nautical Twilight 6:02 AM PST 5:56 PM PST
Astronomical Twilight 5:31 AM PST 6:26 PM PST
Moon 11:09 AM PST (1/7) No Moon Set
Length of Visible Light 10h 51m
Length of Day
9h 55m
Waxing Crescent, 46% of the Moon is Illuminated
Jan 7
Waxing Crescent
Jan 7
First Quarter
Jan 15
Full
Jan 23
Last Quarter
Jan 30
New

Hourly Weather History & Observations

Time (PST) Temp. Windchill Dew Point Humidity Pressure Visibility Wind Dir Wind Speed Gust Speed Precip Events Conditions
12:15 AM 37.4 °F 34.9 °F 3.2 °F 24% 30.20 in 10.0 mi NW 3.5 mph - N/A   Clear
12:35 AM 37.4 °F - 3.2 °F 24% 30.20 in 10.0 mi Calm Calm - N/A   Clear
12:55 AM 37.4 °F 34.9 °F 5.0 °F 26% 30.20 in 10.0 mi NNW 3.5 mph - N/A   Clear
1:15 AM 37.4 °F - 5.0 °F 26% 30.19 in 10.0 mi Calm Calm - N/A   Clear
1:35 AM 37.4 °F 34.9 °F 5.0 °F 26% 30.19 in 10.0 mi North 3.5 mph - N/A   Clear
1:55 AM 37.4 °F - 5.0 °F 26% 30.19 in 8.0 mi Calm Calm - N/A   Clear
2:15 AM 37.4 °F - 5.0 °F 26% 30.20 in 10.0 mi Calm Calm - N/A   Clear
2:35 AM 35.6 °F - 5.0 °F 28% 30.19 in 10.0 mi Calm Calm - N/A   Clear
2:55 AM 35.6 °F - 5.0 °F 28% 30.19 in 10.0 mi Calm Calm - N/A   Clear
3:15 AM 35.6 °F - 5.0 °F 28% 30.18 in 10.0 mi Calm Calm - N/A   Clear
3:35 AM 35.6 °F - 5.0 °F 28% 30.18 in 10.0 mi Calm Calm - N/A   Clear
3:55 AM 35.6 °F - 5.0 °F 28% 30.18 in 10.0 mi Calm Calm - N/A   Clear
4:15 AM 35.6 °F - 5.0 °F 28% 30.17 in 10.0 mi Calm Calm - N/A   Clear
4:35 AM 35.6 °F - 5.0 °F 28% 30.17 in 10.0 mi Calm Calm - N/A   Clear
4:55 AM 37.4 °F - 6.8 °F 28% 30.16 in 10.0 mi Calm Calm - N/A   Clear
5:15 AM 37.4 °F - 6.8 °F 28% 30.16 in 7.0 mi Calm Calm - N/A   Clear
5:35 AM 37.4 °F - 6.8 °F 28% 30.16 in 10.0 mi Calm Calm - N/A   Clear
5:55 AM 39.2 °F 35.9 °F 6.8 °F 26% 30.17 in 10.0 mi North 4.6 mph - N/A   Clear
6:15 AM 39.2 °F 33.6 °F 5.0 °F 24% 30.17 in 10.0 mi NNE 8.1 mph - N/A   Clear
6:35 AM 39.2 °F - 5.0 °F 24% 30.17 in 10.0 mi Calm Calm - N/A   Clear
6:55 AM 39.2 °F - 5.0 °F 24% 30.17 in 10.0 mi Calm Calm - N/A   Clear
7:15 AM 39.2 °F - 5.0 °F 24% 30.16 in 10.0 mi Calm Calm - N/A   Clear
7:35 AM 37.4 °F - 5.0 °F 26% 30.17 in 9.0 mi Calm Calm - N/A   Clear
7:55 AM 39.2 °F 37.0 °F 6.8 °F 26% 30.18 in 10.0 mi West 3.5 mph - N/A   Clear
8:15 AM 42.8 °F 41.1 °F 6.8 °F 23% 30.18 in 8.0 mi North 3.5 mph - N/A   Clear
8:35 AM 46.4 °F - 6.8 °F 20% 30.18 in 10.0 mi Calm Calm - N/A   Clear
8:55 AM 48.2 °F - 5.0 °F 17% 30.19 in 10.0 mi North 3.5 mph - N/A   Clear
9:15 AM 50.0 °F - 5.0 °F 16% 30.19 in 10.0 mi Calm Calm - N/A   Clear
9:35 AM 51.8 °F - 5.0 °F 15% 30.20 in 10.0 mi ENE 3.5 mph - N/A   Clear
9:55 AM 51.8 °F - 5.0 °F 15% 30.21 in 10.0 mi NE 5.8 mph - N/A   Clear
10:15 AM 51.8 °F - 5.0 °F 15% 30.20 in 10.0 mi ENE 4.6 mph - N/A   Clear
10:35 AM 53.6 °F - 5.0 °F 14% 30.19 in 10.0 mi NE 5.8 mph - N/A   Clear
10:55 AM 53.6 °F - 5.0 °F 14% 30.18 in 10.0 mi NE 5.8 mph - N/A   Clear
11:15 AM 53.6 °F - 5.0 °F 14% 30.17 in 10.0 mi ENE 3.5 mph - N/A   Clear
11:35 AM 53.6 °F - 5.0 °F 14% 30.16 in 10.0 mi East 4.6 mph - N/A   Clear
11:55 AM 53.6 °F - 5.0 °F 14% 30.15 in 10.0 mi ENE 5.8 mph - N/A   Clear
12:15 PM 55.4 °F - 5.0 °F 13% 30.13 in 10.0 mi East 4.6 mph - N/A   Clear
12:35 PM 55.4 °F - 5.0 °F 13% 30.12 in 10.0 mi East 5.8 mph - N/A   Clear
12:55 PM 55.4 °F - 5.0 °F 13% 30.11 in 10.0 mi ESE 5.8 mph - N/A   Clear
1:15 PM 55.4 °F - 5.0 °F 13% 30.10 in 10.0 mi ESE 5.8 mph - N/A   Clear
1:35 PM 55.4 °F - 5.0 °F 13% 30.10 in 10.0 mi ESE 4.6 mph - N/A   Clear
1:55 PM 55.4 °F - 5.0 °F 13% 30.10 in 10.0 mi Calm Calm - N/A   Clear
2:15 PM 55.4 °F - 6.8 °F 14% 30.10 in 10.0 mi Calm Calm - N/A   Clear
2:35 PM 55.4 °F - 5.0 °F 13% 30.10 in 10.0 mi Calm Calm - N/A   Clear
2:55 PM 55.4 °F - 5.0 °F 13% 30.10 in 10.0 mi ENE 4.6 mph - N/A   Clear
3:15 PM 57.2 °F - 6.8 °F 13% 30.09 in 10.0 mi West 19.6 mph 26.5 mph N/A   Clear
3:35 PM 60.8 °F - 14.0 °F 16% 30.09 in 10.0 mi WSW 23.0 mph 28.8 mph N/A   Clear
3:55 PM 60.8 °F - 15.8 °F 17% 30.11 in 10.0 mi West 19.6 mph 25.3 mph N/A   Clear
4:15 PM 59.0 °F - 15.8 °F 19% 30.11 in 10.0 mi WSW 12.7 mph 19.6 mph N/A   Clear
4:35 PM 59.0 °F - 15.8 °F 19% 30.11 in 10.0 mi SSW 8.1 mph - N/A   Clear
4:55 PM 59.0 °F - 15.8 °F 19% 30.11 in 10.0 mi SSW 9.2 mph - N/A   Clear
5:15 PM 57.2 °F - 14.0 °F 18% 30.11 in 10.0 mi SSW 9.2 mph - N/A   Clear
5:35 PM 57.2 °F - 14.0 °F 18% 30.10 in 10.0 mi SSW 10.4 mph - N/A   Clear
5:55 PM 57.2 °F - 14.0 °F 18% 30.11 in 10.0 mi South 9.2 mph - N/A   Clear
6:15 PM 55.4 °F - 14.0 °F 20% 30.10 in 10.0 mi SSW 11.5 mph - N/A   Clear
6:35 PM 55.4 °F - 15.8 °F 21% 30.09 in 10.0 mi SW 11.5 mph - N/A   Clear
6:55 PM 55.4 °F - 15.8 °F 21% 30.08 in 10.0 mi WSW 17.3 mph - N/A   Clear
7:15 PM 57.2 °F - 15.8 °F 20% 30.07 in 10.0 mi WSW 21.9 mph 27.6 mph N/A   Clear
7:35 PM 55.4 °F - 15.8 °F 21% 30.07 in 10.0 mi WSW 21.9 mph 26.5 mph N/A   Clear
7:55 PM 55.4 °F - 15.8 °F 21% 30.08 in 10.0 mi WSW 23.0 mph - N/A   Clear
8:15 PM 55.4 °F - 15.8 °F 21% 30.09 in 10.0 mi WSW 19.6 mph - N/A   Clear
8:35 PM 55.4 °F - 17.6 °F 23% 30.08 in 10.0 mi WSW 19.6 mph - N/A   Clear
8:55 PM 55.4 °F - 17.6 °F 23% 30.09 in 10.0 mi WSW 19.6 mph 24.2 mph N/A   Clear
9:15 PM 55.4 °F - 17.6 °F 23% 30.09 in 10.0 mi WSW 17.3 mph 24.2 mph N/A   Clear
9:35 PM 55.4 °F - 17.6 °F 23% 30.09 in 10.0 mi West 17.3 mph - N/A   Clear
9:55 PM 55.4 °F - 17.6 °F 23% 30.09 in 10.0 mi West 15.0 mph - N/A   Clear
10:15 PM 55.4 °F - 17.6 °F 23% 30.09 in 10.0 mi West 15.0 mph - N/A   Clear
10:35 PM 53.6 °F - 15.8 °F 22% 30.09 in 10.0 mi WSW 11.5 mph 21.9 mph N/A   Clear
10:55 PM 53.6 °F - 15.8 °F 22% 30.08 in 10.0 mi WSW 16.1 mph 19.6 mph N/A   Clear
11:15 PM 53.6 °F - 15.8 °F 22% 30.07 in 10.0 mi WSW 25.3 mph 31.1 mph N/A   Clear
11:35 PM 53.6 °F - 15.8 °F 22% 30.06 in 10.0 mi West 13.8 mph 23.0 mph N/A   Clear
11:55 PM 53.6 °F - 15.8 °F 22% 30.07 in 10.0 mi West 23.0 mph 28.8 mph N/A   Clear